| time (UTC) | temp F | wind direction | speed MPH | gust MPH | rain 1hr in | rain 24hr in | rain mn in | humidity % | barometer mb |
| 20260903183538 | 65 | 315 | 1.0 | 2.0 | 0.00 | 0.00 | 0.00 | 89 | 1019.4 |
| 20260903182536 | 65 | 326 | 0.0 | 2.0 | 0.00 | 0.00 | 0.00 | 89 | 1019.3 |
| 20260903181534 | 65 | 315 | 0.0 | 2.0 | 0.00 | 0.00 | 0.00 | 89 | 1019.1 |
| 20260903180532 | 65 | 324 | 1.0 | 2.0 | 0.00 | 0.00 | 0.00 | 89 | 1019.1 |
| 20260903175530 | 65 | 338 | 0.0 | 2.0 | 0.00 | 0.00 | 0.00 | 89 | 1019.1 |
| 20260903174528 | 65 | 0.0 | 2.0 | 0.00 | 0.00 | 0.00 | 89 | 1019.1 | |
| 20260903173526 | 65 | 336 | 1.0 | 4.0 | 0.00 | 0.00 | 0.00 | 89 | 1019.2 |
| 20260903172543 | 65 | 315 | 0.0 | 2.0 | 0.00 | 0.00 | 0.00 | 90 | 1020.4 |
| 20260903171522 | 0 | 0.0 | 0.0 | 0.00 | 0.00 | 0.00 | 1022.8 | ||
| 20260903170519 | 65 | 338 | 2.0 | 2.0 | 0.00 | 0.00 | 0.00 | 88 | 1019.1 |
| 20260903165538 | 66 | 326 | 1.0 | 2.0 | 0.00 | 0.00 | 0.00 | 87 | 1019.1 |
| 20260903164515 | 66 | 315 | 0.0 | 2.0 | 0.00 | 0.00 | 0.00 | 86 | 1019.1 |
| 20260903163613 | 67 | 315 | 0.0 | 2.0 | 0.00 | 0.00 | 0.00 | 85 | 1019.1 |
| 20260903162611 | 68 | 315 | 1.0 | 2.0 | 0.00 | 0.00 | 0.00 | 83 | 1019.4 |
| 20260903161630 | 67 | 0.0 | 2.0 | 0.00 | 0.00 | 0.00 | 87 | 1019.3 | |
| 20260903160608 | 66 | 315 | 1.0 | 2.0 | 0.00 | 0.00 | 0.00 | 89 | 1019.3 |
| 20260903155605 | 65 | 315 | 1.0 | 4.0 | 0.00 | 0.00 | 0.00 | 89 | 1019.1 |
| 20260903154603 | 65 | 315 | 2.0 | 4.0 | 0.00 | 0.00 | 0.00 | 90 | 1019.2 |
| 20260903153602 | 65 | 315 | 2.0 | 2.0 | 0.00 | 0.00 | 0.00 | 90 | 1019.2 |
| 20260903152600 | 65 | 315 | 2.0 | 4.0 | 0.00 | 0.00 | 0.00 | 90 | 1019.4 |
| 20260903151557 | 64 | 315 | 1.0 | 4.0 | 0.00 | 0.00 | 0.00 | 90 | 1019.4 |
| 20260903150555 | 64 | 338 | 2.0 | 4.0 | 0.00 | 0.00 | 0.00 | 89 | 1020.8 |
| 20260903145554 | 65 | 315 | 1.0 | 2.0 | 0.00 | 0.00 | 0.00 | 88 | 1021.4 |
| 20260903144612 | 65 | 315 | 1.0 | 2.0 | 0.00 | 0.00 | 0.00 | 88 | 1020.7 |
| 20260903143549 | 64 | 315 | 2.0 | 2.0 | 0.00 | 0.00 | 0.00 | 89 | 1022.1 |
| 20260903142607 | 64 | 315 | 2.0 | 2.0 | 0.00 | 0.00 | 0.00 | 89 | 1019.6 |
| 20260903141545 | 64 | 315 | 2.0 | 4.0 | 0.00 | 0.00 | 0.00 | 88 | 1019.5 |
| 20260903140604 | 64 | 315 | 2.0 | 4.0 | 0.00 | 0.00 | 0.00 | 89 | 1019.5 |
| 20260903135541 | 64 | 315 | 1.0 | 4.0 | 0.00 | 0.00 | 0.00 | 89 | 1019.4 |
| 20260903134540 | 64 | 318 | 2.0 | 4.0 | 0.00 | 0.00 | 0.00 | 89 | 1019.5 |
| 20260903133538 | 64 | 315 | 2.0 | 6.0 | 0.00 | 0.00 | 0.00 | 89 | 1019.4 |
| 20260903132535 | 64 | 315 | 2.0 | 6.0 | 0.00 | 0.00 | 0.00 | 88 | 1019.5 |
| 20260903131533 | 64 | 315 | 2.0 | 6.0 | 0.00 | 0.00 | 0.00 | 88 | 1019.5 |
| 20260903130531 | 64 | 320 | 2.0 | 7.0 | 0.00 | 0.00 | 0.00 | 88 | 1019.5 |
| 20260903125559 | 64 | 321 | 3.0 | 7.0 | 0.00 | 0.00 | 0.00 | 88 | 1019.4 |
| 20260903124557 | 65 | 319 | 1.0 | 4.0 | 0.00 | 0.00 | 0.00 | 88 | 1019.3 |
| 20260903123555 | 65 | 315 | 2.0 | 6.0 | 0.00 | 0.00 | 0.00 | 86 | 1019.2 |
| 20260903122553 | 66 | 311 | 2.0 | 8.0 | 0.00 | 0.00 | 0.00 | 82 | 1019.2 |
| 20260903121611 | 66 | 315 | 1.0 | 6.0 | 0.00 | 0.00 | 0.00 | 82 | 1019.2 |
| 20260903120549 | 66 | 326 | 1.0 | 6.0 | 0.00 | 0.00 | 0.00 | 82 | 1019.2 |
| 20260903115547 | 66 | 315 | 1.0 | 4.0 | 0.00 | 0.00 | 0.00 | 81 | 1019.0 |
| 20260903114545 | 66 | 315 | 3.0 | 7.0 | 0.00 | 0.00 | 0.00 | 80 | 1019.0 |
| 20260903113723 | 68 | 301 | 5.0 | 11.0 | 0.00 | 0.00 | 0.00 | 74 | 1019.2 |
| 20260903112541 | 69 | 302 | 5.0 | 9.0 | 0.00 | 0.00 | 0.00 | 69 | 1019.0 |
| 20260903111539 | 69 | 315 | 4.0 | 8.0 | 0.00 | 0.00 | 0.00 | 69 | 1019.1 |
| 20260903110537 | 69 | 315 | 3.0 | 6.0 | 0.00 | 0.00 | 0.00 | 69 | 1018.9 |
| 20260903105535 | 69 | 319 | 1.0 | 7.0 | 0.00 | 0.00 | 0.00 | 69 | 1018.9 |
| 20260903104533 | 68 | 322 | 2.0 | 4.0 | 0.00 | 0.00 | 0.00 | 69 | 1019.0 |
| 20260903103531 | 68 | 324 | 2.0 | 7.0 | 0.00 | 0.00 | 0.00 | 68 | 1019.3 |
| 20260903102529 | 69 | 315 | 2.0 | 6.0 | 0.00 | 0.00 | 0.00 | 67 | 1019.3 |
| 20260903101527 | 68 | 319 | 1.0 | 4.0 | 0.00 | 0.00 | 0.00 | 68 | 1019.4 |
| 20260903100525 | 68 | 308 | 4.0 | 9.0 | 0.00 | 0.00 | 0.00 | 67 | 1019.3 |
| 20260903095523 | 69 | 338 | 3.0 | 6.0 | 0.00 | 0.00 | 0.00 | 67 | 1019.2 |
| 20260903094521 | 68 | 325 | 3.0 | 7.0 | 0.00 | 0.00 | 0.00 | 67 | 1019.2 |
| 20260903093519 | 68 | 333 | 3.0 | 4.0 | 0.00 | 0.00 | 0.00 | 68 | 1019.2 |
| 20260903092517 | 67 | 338 | 4.0 | 13.0 | 0.00 | 0.00 | 0.00 | 69 | 1019.3 |
| 20260903091515 | 67 | 338 | 2.0 | 8.0 | 0.00 | 0.00 | 0.00 | 70 | 1019.1 |
| 20260903090613 | 66 | 338 | 2.0 | 6.0 | 0.00 | 0.00 | 0.00 | 70 | 1019.2 |
| 20260903085611 | 65 | 338 | 3.0 | 4.0 | 0.00 | 0.00 | 0.00 | 71 | 1019.5 |
| 20260903084608 | 65 | 338 | 2.0 | 4.0 | 0.00 | 0.00 | 0.00 | 71 | 1019.6 |
| 20260903083607 | 64 | 338 | 2.0 | 6.0 | 0.00 | 0.00 | 0.00 | 72 | 1019.7 |
| 20260903082605 | 64 | 338 | 2.0 | 4.0 | 0.00 | 0.00 | 0.00 | 72 | 1019.6 |
| 20260903081603 | 64 | 338 | 2.0 | 6.0 | 0.00 | 0.00 | 0.00 | 72 | 1019.9 |
| 20260903080621 | 64 | 338 | 2.0 | 4.0 | 0.00 | 0.00 | 0.00 | 73 | 1019.9 |
| 20260903075619 | 64 | 338 | 2.0 | 4.0 | 0.00 | 0.00 | 0.00 | 74 | 1021.3 |
| 20260903074556 | 63 | 338 | 2.0 | 4.0 | 0.00 | 0.00 | 0.00 | 74 | 1020.1 |
| 20260903073555 | 63 | 338 | 2.0 | 4.0 | 0.00 | 0.00 | 0.00 | 75 | 1020.3 |
| 20260903072553 | 62 | 338 | 2.0 | 7.0 | 0.00 | 0.00 | 0.00 | 75 | 1020.2 |
| 20260903071551 | 62 | 326 | 1.0 | 4.0 | 0.00 | 0.00 | 0.00 | 76 | 1020.3 |
| 20260903070548 | 62 | 338 | 2.0 | 2.0 | 0.00 | 0.00 | 0.00 | 76 | 1020.5 |
| 20260903065547 | 61 | 338 | 2.0 | 4.0 | 0.00 | 0.00 | 0.00 | 76 | 1020.3 |
| 20260903064545 | 61 | 338 | 1.0 | 4.0 | 0.00 | 0.00 | 0.00 | 76 | 1020.1 |
| 20260903063603 | 61 | 338 | 1.0 | 2.0 | 0.00 | 0.00 | 0.00 | 77 | 1020.1 |
| 20260903062540 | 60 | 338 | 1.0 | 2.0 | 0.00 | 0.00 | 0.00 | 78 | 1020.2 |
| 20260903061538 | 60 | 338 | 1.0 | 2.0 | 0.00 | 0.00 | 0.00 | 78 | 1020.2 |
| 20260903060537 | 60 | 338 | 1.0 | 4.0 | 0.00 | 0.00 | 0.00 | 79 | 1020.4 |
| 20260903055555 | 60 | 338 | 0.0 | 2.0 | 0.00 | 0.00 | 0.00 | 80 | 1020.4 |
| 20260903054533 | 59 | 338 | 1.0 | 4.0 | 0.00 | 0.00 | 0.00 | 81 | 1020.2 |
| 20260903053530 | 59 | 338 | 0.0 | 2.0 | 0.00 | 0.00 | 0.00 | 81 | 1020.3 |
| 20260903052548 | 59 | 0.0 | 2.0 | 0.00 | 0.00 | 0.00 | 82 | 1020.7 | |
| 20260903051526 | 58 | 338 | 1.0 | 2.0 | 0.00 | 0.00 | 0.00 | 83 | 1021.4 |
| 20260903050545 | 58 | 338 | 1.0 | 2.0 | 0.00 | 0.00 | 0.00 | 83 | 1020.7 |
| 20260903045522 | 58 | 338 | 1.0 | 2.0 | 0.00 | 0.00 | 0.00 | 83 | 1020.8 |
| 20260903044540 | 58 | 338 | 0.0 | 2.0 | 0.00 | 0.00 | 0.00 | 83 | 1020.7 |
| 20260903043518 | 58 | 0.0 | 2.0 | 0.00 | 0.00 | 0.00 | 83 | 1020.8 | |
| 20260903042516 | 57 | 338 | 1.0 | 2.0 | 0.00 | 0.00 | 0.00 | 84 | 1022.9 |
| 20260903041614 | 57 | 338 | 2.0 | 2.0 | 0.00 | 0.00 | 0.00 | 85 | 1020.9 |
| 20260903040612 | 57 | 338 | 1.0 | 2.0 | 0.00 | 0.00 | 0.00 | 85 | 1020.8 |
| 20260903035610 | 57 | 338 | 1.0 | 2.0 | 0.00 | 0.00 | 0.00 | 85 | 1020.8 |
| 20260903034608 | 57 | 338 | 1.0 | 2.0 | 0.00 | 0.00 | 0.00 | 85 | 1022.8 |
| 20260903033606 | 56 | 0.0 | 2.0 | 0.00 | 0.00 | 0.00 | 86 | 1021.0 | |
| 20260903032604 | 56 | 338 | 1.0 | 4.0 | 0.00 | 0.00 | 0.00 | 87 | 1020.9 |
| 20260903031602 | 0 | 0.0 | 0.0 | 0.00 | 0.00 | 0.00 | 1025.2 | ||
| 20260903030600 | 56 | 338 | 1.0 | 2.0 | 0.00 | 0.00 | 0.00 | 86 | 1020.9 |
| 20260903025638 | 56 | 338 | 0.0 | 2.0 | 0.00 | 0.00 | 0.00 | 86 | 1021.1 |
| 20260903024556 | 0 | 0.0 | 0.0 | 0.00 | 0.00 | 0.00 | 1025.4 | ||
| 20260903023554 | 56 | 338 | 1.0 | 2.0 | 0.00 | 0.00 | 0.00 | 86 | 1021.2 |
| 20260903022552 | 56 | 338 | 1.0 | 4.0 | 0.00 | 0.00 | 0.00 | 87 | 1021.3 |
| 20260903021610 | 56 | 338 | 0.0 | 2.0 | 0.00 | 0.00 | 0.00 | 87 | 1021.5 |
| 20260903020548 | 56 | 0.0 | 2.0 | 0.00 | 0.00 | 0.00 | 87 | 1021.7 | |
| 20260903015546 | 56 | 338 | 1.0 | 2.0 | 0.00 | 0.00 | 0.00 | 87 | 1025.1 |
| 20260903014544 | 0 | 0.0 | 0.0 | 0.00 | 0.00 | 0.00 | 1025.7 | ||
| 20260903013542 | 0 | 0.0 | 0.0 | 0.00 | 0.00 | 0.00 | 1025.7 | ||
| 20260903012540 | 0 | 0.0 | 0.0 | 0.00 | 0.00 | 0.00 | 1025.9 | ||
| 20260903011538 | 57 | 338 | 1.0 | 2.0 | 0.00 | 0.00 | 0.00 | 86 | 1023.8 |
| 20260903010536 | 57 | 338 | 1.0 | 2.0 | 0.00 | 0.00 | 0.00 | 86 | 1023.2 |
| 20260903005534 | 57 | 338 | 1.0 | 2.0 | 0.00 | 0.00 | 0.00 | 86 | 1021.8 |
| 20260903004552 | 57 | 338 | 1.0 | 4.0 | 0.00 | 0.00 | 0.00 | 85 | 1021.8 |
| 20260903003530 | 57 | 338 | 0.0 | 2.0 | 0.00 | 0.00 | 0.00 | 85 | 1021.9 |
| 20260903002528 | 57 | 338 | 1.0 | 2.0 | 0.00 | 0.00 | 0.00 | 85 | 1021.9 |
| 20260903001526 | 57 | 338 | 0.0 | 2.0 | 0.00 | 0.00 | 0.00 | 85 | 1022.0 |
| 20260903000524 | 57 | 0.0 | 2.0 | 0.00 | 0.00 | 0.00 | 85 | 1022.1 | |
| 20260902235522 | 56 | 338 | 1.0 | 4.0 | 0.00 | 0.00 | 0.00 | 86 | 1022.2 |
| 20260902234520 | 56 | 338 | 1.0 | 4.0 | 0.00 | 0.00 | 0.00 | 86 | 1022.2 |
| 20260902233518 | 56 | 338 | 0.0 | 2.0 | 0.00 | 0.00 | 0.00 | 86 | 1022.2 |
| 20260902232516 | 56 | 338 | 0.0 | 2.0 | 0.00 | 0.00 | 0.00 | 86 | 1022.3 |
| 20260902231614 | 56 | 338 | 1.0 | 2.0 | 0.00 | 0.00 | 0.00 | 85 | 1022.4 |
| 20260902230612 | 57 | 349 | 2.0 | 4.0 | 0.00 | 0.00 | 0.00 | 84 | 1022.5 |
| 20260902225610 | 57 | 0.0 | 2.0 | 0.00 | 0.00 | 0.00 | 84 | 1022.6 | |
| 20260902224608 | 0 | 0.0 | 0.0 | 0.00 | 0.00 | 0.00 | 1026.7 | ||
| 20260902223606 | 0 | 0.0 | 0.0 | 0.00 | 0.00 | 0.00 | 1026.6 | ||
| 20260902222604 | 0 | 0.0 | 0.0 | 0.00 | 0.00 | 0.00 | 1026.6 | ||
| 20260902221602 | 0 | 0.0 | 0.0 | 0.00 | 0.00 | 0.00 | 1026.7 | ||
| 20260902220620 | 57 | 338 | 2.0 | 2.0 | 0.00 | 0.00 | 0.00 | 84 | 1022.6 |
| 20260902215618 | 57 | 0.0 | 2.0 | 0.00 | 0.00 | 0.00 | 83 | 1024.0 | |
| 20260902214556 | 57 | 0.0 | 2.0 | 0.00 | 0.00 | 0.00 | 83 | 1022.6 | |
| 20260902213554 | 57 | 0.0 | 2.0 | 0.00 | 0.00 | 0.00 | 84 | 1023.2 | |
| 20260902212552 | 57 | 338 | 0.0 | 2.0 | 0.00 | 0.00 | 0.00 | 83 | 1022.6 |
| 20260902211610 | 57 | 338 | 0.0 | 2.0 | 0.00 | 0.00 | 0.00 | 83 | 1022.5 |
| 20260902210548 | 57 | 338 | 1.0 | 2.0 | 0.00 | 0.00 | 0.00 | 83 | 1022.4 |
| 20260902205545 | 58 | 0.0 | 2.0 | 0.00 | 0.00 | 0.00 | 81 | 1022.6 | |
| 20260902204543 | 58 | 338 | 0.0 | 2.0 | 0.00 | 0.00 | 0.00 | 79 | 1022.6 |
| 20260902203541 | 59 | 338 | 1.0 | 2.0 | 0.00 | 0.00 | 0.00 | 78 | 1022.5 |
| 20260902202559 | 59 | 0.0 | 2.0 | 0.00 | 0.00 | 0.00 | 77 | 1022.4 | |
| 20260902201537 | 60 | 338 | 0.0 | 2.0 | 0.00 | 0.00 | 0.00 | 77 | 1022.4 |
| 20260902200536 | 59 | 338 | 1.0 | 2.0 | 0.00 | 0.00 | 0.00 | 77 | 1022.3 |
| 20260902195533 | 60 | 338 | 3.0 | 4.0 | 0.00 | 0.00 | 0.00 | 76 | 1022.4 |
| 20260902194532 | 61 | 338 | 1.0 | 2.0 | 0.00 | 0.00 | 0.00 | 73 | 1022.6 |
| 20260902193529 | 61 | 338 | 0.0 | 2.0 | 0.00 | 0.00 | 0.00 | 73 | 1022.6 |
| 20260902192527 | 61 | 338 | 0.0 | 2.0 | 0.00 | 0.00 | 0.00 | 73 | 1022.4 |
| 20260902191526 | 0 | 0.0 | 0.0 | 0.00 | 0.00 | 0.00 | 1026.4 | ||
| 20260902190524 | 62 | 338 | 1.0 | 2.0 | 0.00 | 0.00 | 0.00 | 71 | 1022.4 |
| 20260902185522 | 64 | 0.0 | 2.0 | 0.00 | 0.00 | 0.00 | 66 | 1022.5 | |
| 20260902184519 | 0 | 0.0 | 0.0 | 0.00 | 0.00 | 0.00 | 1026.2 |